Content
SEND FEEDBACK

Daily
Averages
Monthly
Summary
United States of America

AGAT, GUAM


Home > North America > United States > Guam
Elevation: 364 feet     Latitude: 13 33N     Longitude: 144 50E

WEATHER
 
SELECT A DAY
Number of Records: 208,997;   Date Range: 1/1/95 - 7/26/14
 
SHARE

PRINT THIS DATA

[ ← Previous Day ]
WEATHER ALMANAC - APRIL 19, 2013
[ Next Day → ]
[ °C ]   °F
Weather ElementAverageHighLow
Temperature83.4 °F89.1 °F (1:54 pm)79 °F (4:54 am)
Dewpoint73.6 °F77 °F (8:40 am)70 °F (3:54 am)
Humidity72.9 %84 % (5:54 am)55 % (1:54 pm)
Barometer29.86 in29.90 in (7:51 am)29.79 in (2:54 pm)
Wind Speed7.8 mph12.7 mph (2:54 am)
Wind Gust18.4 mph (11:54 am)
Weather ElementAverage
Visibility8.9 mi
Wind DirectionE (90.7 °)

Weather ElementTotal
Precipitation0.22 in
Cooling Degree Days19.1 (Base 65)
Growing Degree Days34.1 (Base 50)
Averaged from 29 records on April 19, 2013
WEATHER CONDITIONS BREAKOUT
WIND DIRECTION BREAKOUT
WEATHER BY HOUR - APRIL 19, 2013
[ °C ]   °F
Local TimeTemperatureDewpointHumidityBarometerVisibilityWind DirectionWind SpeedGust SpeedPrecipitationEventsConditions
1:54 AM80.1 °F73.0 °F79 %29.84 in10.0 miEast (90°)8.1 mphMostly Cloudy
2:54 AM80.1 °F72.0 °F76 %29.83 in10.0 miNE (50°)12.7 mphOvercast
3:54 AM80.1 °F70.0 °F71 %29.83 in10.0 miEast (100°)5.8 mphMostly Cloudy
4:54 AM79.0 °F73.0 °F82 %29.83 in10.0 miEast (90°)4.6 mphMostly Cloudy
5:54 AM79.0 °F73.9 °F84 %29.84 in10.0 miEast (100°)8.1 mphPartly Cloudy
6:54 AM80.1 °F73.0 °F79 %29.86 in10.0 miEast (100°)3.5 mphMostly Cloudy
7:51 AM80.6 °F73.4 °F79 %29.90 in2.5 miEast (90°)8.1 mph0.00 inRainHeavy Rain
7:54 AM80.1 °F73.9 °F81 %29.87 in1.8 miENE (70°)6.9 mph0.03 inRainHeavy Rain
7:59 AM80.6 °F75.2 °F84 %29.90 in2.0 miENE (60°)4.6 mph0.03 inRainRain
8:02 AM80.6 °F75.2 °F84 %29.90 in3.0 miENE (60°)3.5 mph0.04 inRainRain
8:31 AM82.4 °F75.2 °F79 %29.90 in10.0 miEast (80°)10.4 mph0.04 inOvercast
8:40 AM82.4 °F77.0 °F84 %29.90 in10.0 miEast (80°)10.4 mph0.04 inOvercast
8:54 AM84.0 °F75.9 °F76 %29.88 in10.0 miEast (80°)9.2 mph0.04 inMostly Cloudy
9:03 AM84.2 °F75.2 °F74 %29.90 in10.0 miEast (90°)9.2 mphScattered Clouds
9:54 AM84.0 °F73.0 °F69 %29.87 in10.0 miEast (90°)8.1 mphOvercast
10:54 AM87.1 °F72.0 °F61 %29.86 in10.0 miEast (90°)10.4 mphMostly Cloudy
11:54 AM88.0 °F72.0 °F59 %29.84 in10.0 miESE (110°)12.7 mph18.4 mphPartly Cloudy
12:54 PM88.0 °F73.9 °F63 %29.82 in10.0 miSE (140°)10.4 mphMostly Cloudy
1:54 PM89.1 °F71.1 °F55 %29.80 in10.0 miEast (100°)9.2 mphMostly Cloudy
2:54 PM88.0 °F72.0 °F59 %29.79 in10.0 miESE (110°)9.2 mphOvercast
3:54 PM86.0 °F73.0 °F65 %29.79 in10.0 miESE (120°)8.1 mphOvercast
4:54 PM86.0 °F73.9 °F67 %29.80 in10.0 miESE (110°)9.2 mphMostly Cloudy
5:54 PM86.0 °F73.9 °F67 %29.82 in10.0 miEast (80°)10.4 mphMostly Cloudy
6:54 PM84.0 °F73.9 °F72 %29.84 in10.0 miEast (80°)8.1 mphScattered Clouds
7:54 PM82.9 °F73.9 °F74 %29.86 in10.0 miEast (90°)4.6 mphScattered Clouds
8:54 PM84.0 °F73.9 °F72 %29.88 in10.0 miEast (90°)5.8 mphMostly Cloudy
9:54 PM84.0 °F73.9 °F72 %29.90 in10.0 miEast (100°)4.6 mphMostly Cloudy
10:54 PM82.9 °F73.9 °F74 %29.90 in10.0 miEast (90°)5.8 mphOvercast
11:54 PM84.0 °F75.0 °F74 %29.89 in10.0 miEast (90°)4.6 mphMostly Cloudy
Hourly data recorded from PGUM, located miles away from Agat, Guam







STORIES FROM OUR PARTNERS